When you browse on this site, cookies collect data to enhance your experience and personalize the content and advertising you see.
Visit our Privacy Policy to learn more. By continuing to use the site, you agree to this use of cookies and data.
  • In Switzerland
  • List of Countries
  • For 7 days
  • Water Temperature
  • Satellite Maps
  • Weather Map
  • Weather Widgets
  • user-avatar
    Login

    Hourly Weather Plachynda

    Today, 19 February, Tuesday

    Time Temperature Precipitation Wind Pressure Humidity
    00:00 +6°C° 0 mm 1 mps 751 mmHg 71%
    01:00 +4°C° 0 mm 2 mps 751 mmHg 71%
    02:00 +4°C° 0 mm 2 mps 751 mmHg 72%
    03:00 +3°C° 0 mm 2 mps 751 mmHg 72%
    04:00 +3°C° 0 mm 2 mps 751 mmHg 73%
    05:00 +1°C° 0 mm 3 mps 751 mmHg 73%
    06:00 +1°C° 0 mm 3 mps 751 mmHg 73%
    07:00 +1°C° 0 mm 3 mps 751 mmHg 74%
    08:00 +1°C° 0 mm 3 mps 751 mmHg 73%
    09:00 +1°C° 0 mm 4 mps 751 mmHg 69%
    10:00 +4°C° 0 mm 4 mps 751 mmHg 65%
    11:00 +5°C° 0 mm 4 mps 751 mmHg 60%
    12:00 +6°C° 0 mm 5 mps 751 mmHg 58%
    13:00 +7°C° 0 mm 5 mps 750 mmHg 57%
    14:00 +8°C° 0 mm 5 mps 750 mmHg 55%
    15:00 +8°C° 0 mm 5 mps 749 mmHg 57%
    16:00 +7°C° 0 mm 5 mps 749 mmHg 60%
    17:00 +7°C° 0 mm 5 mps 749 mmHg 63%
    18:00 +5°C° 0 mm 6 mps 748 mmHg 68%
    19:00 +4°C° 0 mm 6 mps 748 mmHg 74%
    20:00 +3°C° 0 mm 6 mps 748 mmHg 79%
    21:00 +3°C° 0 mm 6 mps 748 mmHg 82%
    22:00 +3°C° 0 mm 6 mps 747 mmHg 84%
    23:00 +2°C° 0 mm 6 mps 747 mmHg 86%

    Tomorrow, 20 February, Wednesday

    Time Temperature Precipitation Wind Pressure Humidity
    00:00 +2°C° 0 mm 6 mps 747 mmHg 87%
    01:00 +2°C° 0 mm 5 mps 746 mmHg 88%
    02:00 +2°C° 0 mm 5 mps 746 mmHg 89%
    03:00 +1°C° 0 mm 5 mps 746 mmHg 90%
    04:00 +1°C° 0 mm 4 mps 745 mmHg 92%
    05:00 +1°C° 0 mm 4 mps 745 mmHg 93%
    06:00 +1°C° 0 mm 4 mps 745 mmHg 93%
    07:00 +2°C° 0 mm 3 mps 745 mmHg 94%
    08:00 +2°C° 0 mm 3 mps 745 mmHg 95%
    09:00 +3°C° 0 mm 3 mps 745 mmHg 87%
    10:00 +6°C° 0 mm 2 mps 745 mmHg 80%
    11:00 +7°C° 0 mm 2 mps 745 mmHg 72%
    12:00 +8°C° 0 mm 3 mps 745 mmHg 66%
    13:00 +10°C° 0 mm 3 mps 745 mmHg 59%
    14:00 +11°C° 0 mm 4 mps 745 mmHg 52%
    15:00 +11°C° 0 mm 4 mps 745 mmHg 53%
    16:00 +10°C° 0 mm 4 mps 745 mmHg 54%
    17:00 +10°C° 0 mm 4 mps 745 mmHg 56%
    18:00 +8°C° 0 mm 4 mps 746 mmHg 61%
    19:00 +7°C° 0 mm 4 mps 746 mmHg 66%
    20:00 +6°C° 0 mm 4 mps 747 mmHg 71%
    21:00 +5°C° 0 mm 4 mps 747 mmHg 73%
    22:00 +5°C° 0 mm 4 mps 747 mmHg 75%
    23:00 +4°C° 0 mm 3 mps 747 mmHg 77%

    Day after tomorrow, 21 February, Thursday

    Time Temperature Precipitation Wind Pressure Humidity
    00:00 +4°C° 0 mm 3 mps 748 mmHg 77%
    01:00 +3°C° 0 mm 4 mps 748 mmHg 77%
    02:00 +1°C° 0 mm 4 mps 748 mmHg 76%
    03:00 +1°C° 0 mm 4 mps 748 mmHg 76%
    04:00 +1°C° 0 mm 4 mps 748 mmHg 75%
    05:00 +1°C° 0 mm 4 mps 748 mmHg 74%
    06:00 +1°C° 0 mm 4 mps 748 mmHg 74%
    07:00 +1°C° 0 mm 5 mps 748 mmHg 74%
    08:00 +1°C° 0 mm 5 mps 749 mmHg 73%
    09:00 +2°C° 0 mm 6 mps 749 mmHg 66%
    10:00 +4°C° 0 mm 7 mps 749 mmHg 58%
    11:00 +5°C° 0 mm 8 mps 749 mmHg 51%
    12:00 +6°C° 0 mm 8 mps 749 mmHg 50%
    13:00 +6°C° 0 mm 8 mps 749 mmHg 49%
    14:00 +6°C° 0 mm 8 mps 748 mmHg 48%
    15:00 +6°C° 0 mm 7 mps 748 mmHg 49%
    16:00 +7°C° 0 mm 6 mps 748 mmHg 50%
    17:00 +6°C° 0 mm 5 mps 748 mmHg 51%
    18:00 +6°C° 0 mm 5 mps 748 mmHg 54%
    19:00 +6°C° 0 mm 4 mps 748 mmHg 56%
    20:00 +5°C° 0 mm 3 mps 748 mmHg 59%
    21:00 +5°C° 0 mm 3 mps 748 mmHg 61%
    22:00 +5°C° 0 mm 3 mps 748 mmHg 62%
    23:00 +5°C° 0 mm 3 mps 748 mmHg 64%

    22 February, Friday

    Time Temperature Precipitation Wind Pressure Humidity
    00:00 +4°C° 0.1 mm 3 mps 748 mmHg 65%
    01:00 +4°C° 0.1 mm 3 mps 747 mmHg 67%
    02:00 +4°C° 0.1 mm 3 mps 747 mmHg 68%
    03:00 +4°C° 0.1 mm 3 mps 746 mmHg 70%
    04:00 +4°C° 0.1 mm 3 mps 746 mmHg 71%
    05:00 +4°C° 0.1 mm 2 mps 745 mmHg 72%
    06:00 +4°C° 0.2 mm 2 mps 745 mmHg 74%
    07:00 +4°C° 0.2 mm 2 mps 745 mmHg 75%
    08:00 +3°C° 0.2 mm 3 mps 744 mmHg 76%
    09:00 +3°C° 0.6 mm 3 mps 744 mmHg 77%
    10:00 +4°C° 0.6 mm 3 mps 744 mmHg 78%
    11:00 +4°C° 0.6 mm 3 mps 744 mmHg 79%
    12:00 +1°C° 0.5 mm 5 mps 745 mmHg 81%
    13:00 -1°C° 0.5 mm 6 mps 745 mmHg 83%
    14:00 -2°C° 0.5 mm 8 mps 745 mmHg 85%
    15:00 -4°C° 0.5 mm 9 mps 746 mmHg 83%
    16:00 -5°C° 0.5 mm 9 mps 747 mmHg 82%
    17:00 -6°C° 0.5 mm 9 mps 748 mmHg 81%
    18:00 -8°C° 0 mm 9 mps 749 mmHg 74%
    19:00 -9°C° 0 mm 9 mps 750 mmHg 68%
    20:00 -10°C° 0 mm 10 mps 751 mmHg 62%
    21:00 -10°C° 0 mm 9 mps 752 mmHg 62%
    22:00 -11°C° 0 mm 9 mps 752 mmHg 62%
    23:00 -11°C° 0 mm 8 mps 753 mmHg 61%

    23 February, Saturday

    Time Temperature Precipitation Wind Pressure Humidity
    00:00 -11°C° 0 mm 8 mps 753 mmHg 60%
    01:00 -11°C° 0 mm 8 mps 753 mmHg 59%
    02:00 -11°C° 0 mm 8 mps 753 mmHg 58%
    03:00 -11°C° 0 mm 7 mps 753 mmHg 57%
    04:00 -11°C° 0 mm 7 mps 753 mmHg 57%
    05:00 -11°C° 0 mm 7 mps 753 mmHg 56%
    06:00 -10°C° 0 mm 6 mps 753 mmHg 56%
    07:00 -10°C° 0 mm 6 mps 754 mmHg 55%
    08:00 -10°C° 0 mm 6 mps 754 mmHg 55%
    09:00 -9°C° 0 mm 6 mps 754 mmHg 53%
    10:00 -8°C° 0 mm 7 mps 755 mmHg 50%
    11:00 -8°C° 0 mm 7 mps 755 mmHg 48%
    12:00 -8°C° 0.1 mm 7 mps 755 mmHg 47%
    13:00 -8°C° 0.1 mm 7 mps 755 mmHg 46%
    14:00 -7°C° 0.1 mm 7 mps 755 mmHg 45%
    15:00 -8°C° 0 mm 7 mps 755 mmHg 46%
    16:00 -8°C° 0 mm 6 mps 755 mmHg 47%
    17:00 -8°C° 0 mm 6 mps 755 mmHg 48%
    18:00 -9°C° 0 mm 6 mps 755 mmHg 52%
    19:00 -8°C° 0 mm 5 mps 755 mmHg 56%
    20:00 -8°C° 0 mm 5 mps 755 mmHg 59%
    21:00 -8°C° 0 mm 4 mps 755 mmHg 60%
    22:00 -9°C° 0 mm 4 mps 755 mmHg 60%
    23:00 -9°C° 0 mm 4 mps 755 mmHg 61%

    24 February, Sunday

    Time Temperature Precipitation Wind Pressure Humidity
    00:00 -9°C° 0 mm 4 mps 755 mmHg 62%
    01:00 -9°C° 0 mm 4 mps 755 mmHg 62%
    02:00 -9°C° 0 mm 4 mps 755 mmHg 63%
    03:00 -9°C° 0 mm 4 mps 755 mmHg 64%
    04:00 -10°C° 0 mm 5 mps 755 mmHg 65%
    05:00 -10°C° 0 mm 5 mps 755 mmHg 65%
    06:00 -10°C° 0 mm 5 mps 755 mmHg 65%
    07:00 -10°C° 0 mm 6 mps 755 mmHg 65%
    08:00 -10°C° 0 mm 6 mps 755 mmHg 65%
    09:00 -10°C° 0 mm 6 mps 756 mmHg 62%
    10:00 -9°C° 0 mm 6 mps 756 mmHg 60%
    11:00 -9°C° 0 mm 7 mps 756 mmHg 57%
    12:00 -8°C° 0 mm 7 mps 756 mmHg 56%
    13:00 -8°C° 0 mm 7 mps 756 mmHg 55%
    14:00 -7°C° 0 mm 7 mps 755 mmHg 55%
    15:00 -8°C° 0 mm 7 mps 756 mmHg 56%
    16:00 -8°C° 0 mm 7 mps 756 mmHg 57%
    17:00 -8°C° 0 mm 7 mps 756 mmHg 58%
    18:00 -8°C° 0 mm 7 mps 756 mmHg 59%
    19:00 -8°C° 0 mm 7 mps 756 mmHg 60%
    20:00 -8°C° 0 mm 7 mps 756 mmHg 62%
    21:00 -8°C° 0 mm 7 mps 756 mmHg 63%
    22:00 -9°C° 0 mm 7 mps 756 mmHg 64%
    23:00 -9°C° 0 mm 7 mps 756 mmHg 65%
    Show more